Location: Lane
(33.5226°N, 79.8788°W)
Time: 19:56:11
(UTC+00:00)

Explorer 11/Cluster Stage 4 - Pass Details

Date: 03 October 2022
Orbit: 466 x 1247 km, 28.8° (Epoch: 01 December)

Event Time Altitude Azimuth Distance (km) Brightness Sun altitude
Rises 13:41:37 0° 198° (SSW) 4,085 10.4 28.4°
Reaches altitude 10° 13:46:19 10° 174° (S) 3,190 10.2 29.3°
Maximum altitude 13:49:54 13° 148° (SSE) 2,944 10.7 29.9°
Drops below altitude 10° 13:53:29 10° 121° (ESE) 3,196 11.3 30.6°
Sets 13:58:10 0° 97° (E) 4,100 11.2 31.4°
